This is the latest recevied weather packets stored in our database for station/object KD8JAM. If no packets are shown the sender has not sent any weather packets the latest 10 day(s).
| Time | Temp. | Humidity | Pressure | Rain* | Wind** | Luminosity | Snow |
|---|---|---|---|---|---|---|---|
| 1777550914 | -0.56° C | 99% | 1018.1 hPa | 0 mm | - | 81 W/m² | - |
| 1777550611 | -0.56° C | 99% | 1017.9 hPa | 0 mm | - | 78 W/m² | - |
| 1777550307 | -0.56° C | 99% | 1017.8 hPa | 0 mm | - | 71 W/m² | - |
| 1777550004 | -0.56° C | 99% | 1018 hPa | 0 mm | - | 60 W/m² | - |
| 1777549700 | -0.56° C | 99% | 1018 hPa | 0 mm | - | 56 W/m² | - |
| 1777549394 | -0.56° C | 99% | 1017.8 hPa | 0 mm | - | 52 W/m² | - |
| 1777549092 | -0.56° C | 99% | 1017.8 hPa | 0 mm | - | 46 W/m² | - |
| 1777548788 | -0.56° C | 99% | 1017.7 hPa | 0 mm | - | 40 W/m² | - |
| 1777548486 | -0.56° C | 99% | 1017.8 hPa | 0 mm | - | 34 W/m² | - |
| 1777548182 | -0.56° C | 99% | 1017.8 hPa | 0 mm | - | 30 W/m² | - |
| 1777547879 | -0.56° C | 99% | 1017.8 hPa | 0 mm | - | 26 W/m² | - |
| 1777547575 | -0.56° C | 99% | 1017.7 hPa | 0 mm | - | 21 W/m² | - |
| 1777547273 | -0.56° C | 99% | 1017.8 hPa | 0 mm | - | 16 W/m² | - |
| 1777546969 | -0.56° C | 99% | 1017.6 hPa | 0 mm | - | 12 W/m² | - |
| 1777546666 | -0.56° C | 99% | 1017.5 hPa | 0 mm | - | 9 W/m² | - |
| 1777546362 | -0.56° C | 99% | 1017.9 hPa | 0 mm | - | 6 W/m² | - |
| 1777546060 | -0.56° C | 99% | 1017.7 hPa | 0 mm | - | 4 W/m² | - |
| 1777545756 | -0.56° C | 99% | 1017.6 hPa | 0 mm | - | 2 W/m² | - |
| 1777545453 | -0.56° C | 99% | 1017.7 hPa | 0 mm | - | 1 W/m² | - |
| 1777545150 | -0.56° C | 99% | 1017.6 hPa | 0 mm | - | 0 W/m² | - |
| 1777544848 | -0.56° C | 99% | 1017.7 hPa | 0 mm | - | 0 W/m² | - |
| 1777544543 | -0.56° C | 99% | 1017.6 hPa | 0 mm | - | 0 W/m² | - |
| 1777544240 | -0.56° C | 99% | 1017.7 hPa | 0 mm | - | 0 W/m² | - |
| 1777543937 | -0.56° C | 99% | 1017.9 hPa | 0 mm | - | 0 W/m² | - |
| 1777543634 | -0.56° C | 99% | 1017.8 hPa | 0 mm | - | 0 W/m² | - |
* Rain latest hour (hover to see other rain measurements)
** Current wind speed in m/s (hover to see current wind gust speed)